Location: Bern�tre
(50.1974°N, 2.0915°E)
Time: 04:55:33
(UTC+00:00)

SL-08 RB Rocket - Pass Details

Date: 18 September 2020
Orbit: 647 x 684 km, 97.8° (Epoch: 29 October)

Event Time Altitude Azimuth Distance (km) Brightness Sun altitude
Exits shadow 19:32:41 - 174° (S) 2,760 6.6 -15.6°
Reaches altitude 10° 19:34:18 10° 177° (S) 2,103 6.0 -15.8°
Maximum altitude 19:38:52 64° 258° (WSW) 745 4.1 -16.5°
Drops below altitude 10° 19:43:25 10° 341° (NNW) 2,096 6.9 -17.2°
Sets 19:45:40 0° 344° (NNW) 3,007 7.7 -17.5°
